Regional Weather Roundup
Issued by NWS

Home | Current Version | Previous Version | Graphics & Text | Print | Product List | Glossary On
Versions: 1 2 3 4 5 6 7 8 9 10 11 12 13 14 15 16 17 18 19 20 21 22 23 24 25 26 27 28 29 30 31 32 33 34 35 36 37 38 39 40 41 42 43 44 45 46 47 48 49 50
000
ASUS43 KFSD 010810
RWRSD

WEATHER ROUNDUP FOR SOUTH DAKOTA
NATIONAL WEATHER SERVICE SIOUX FALLS SD
300 AM CDT SUN MAY 01 2016

NOTE: "FAIR" INDICATES FEW OR NO CLOUDS BELOW 12,000 FEET WITH NO
SIGNIFICANT WEATHER AND/OR OBSTRUCTIONS TO VISIBILITY.


SDZ001>005-009-010-012>017-010900-
NORTHWEST AND NORTH CENTRAL SOUTH DAKOTA

CITY           SKY/WX    TMP DP  RH WIND       PRES   REMARKS
BUFFALO          N/A     40  26  57 N7        30.22S
FAITH            N/A     34  27  75 N8        30.25S WCI  27
MOBRIDGE       CLEAR     44  30  57 NE15      30.20S
$$

SDZ012>016-024>037-041>051-057-063-072>074-010900-
SOUTHWEST AND SOUTH CENTRAL SOUTH DAKOTA

CITY           SKY/WX    TMP DP  RH WIND       PRES   REMARKS
RAPID CTY ARPT CLEAR     34  29  82 N9        30.24S WCI  27
PIERRE         CLOUDY    36  31  82 E3        30.18R
CUSTER         CLOUDY    35  24  64 NW8G20    30.22R WCI  29
ELLSWORTH AFB  CLOUDY    42  31  65 N10       30.24S
PHILIP         CLOUDY    37  30  75 N14       30.21R
PINE RIDGE     CLOUDY    38  35  89 N3        30.21S
WINNER         CLOUDY    42  39  89 NW6       30.15F
$$

SDZ004>011-016>023-039-040-010900-
NORTHEAST SOUTH DAKOTA

CITY           SKY/WX    TMP DP  RH WIND       PRES   REMARKS
ABERDEEN       CLEAR     35  30  82 N6        30.21R
WATERTOWN      CLOUDY    40  28  62 NE14      30.15R
BROOKINGS      CLOUDY    41  32  70 NE9       30.12R
SISSETON         N/A     35  30  82 NW3       30.20S
$$

SDZ017-020-022-023-036>040-048>070-010900-
SOUTHEAST SOUTH DAKOTA

CITY           SKY/WX    TMP DP  RH WIND       PRES   REMARKS
SIOUX FALLS    CLOUDY    43  39  86 NE13      30.09S
HURON          CLOUDY    41  32  70 NE10      30.15S
CHAMBERLAIN    PTCLDY    43  42  95 N6        30.15S
MITCHELL       CLOUDY    44  41  89 N8        30.13S
YANKTON        CLOUDY    45  39  81 NE16G23   30.06S
$$

ABBREVIATIONS USED IN REMARKS
   TC - TEMPERATURE IN CELSIUS
  WCI - WIND CHILL INDEX
   HX - HEAT INDEX
  VSB - VISIBILITY




USA.gov is the U.S. government's official web portal to all federal, state and local government web resources and services.